HJS-7C

导读 | 豆包AI

HJS-7C是中国于2025年9月16日成功发射的国产卫星。该卫星是中国航天事业持续推进的最新成果之一,承载着重要的科研与应用使命,将在空间环境探测、遥感监测、技术验证等领域发挥关键作用,进一步提升中国卫星组网能力,助力航天科技发展与国民经济建设。

基本信息
目录编号:
65619
目录名称:
HJS-7C
国际标识:
2025-209C
轨道中心:
EARTH
卫星名称:
HJS-7C
卫星全名:
HJS-7C
卫星状态:
在轨 (已飞行226 天)
发射日期:
2025-09-16 UTC
国别 :
中国 (CN)
星等 :
--
轨道信息
数据来源 国际轨道数据 AOE轨道数据
星历时间 2026-04-30T17:24:56+0800
12小时前
查看轨道信息
2026-04-30T08:00:00+0800
22小时前
查看轨道信息
半长轴 7481.999km 7482.007km
偏心率 0.0001863 0.0001983
轨道倾角 49.998° 49.999°
近地点辐角 319.381° 351.459°
升交点赤经 173.714° 175.153°
平近点角 40.693° 272.834°
近地点 1102.468km 1102.386km
远地点 1105.256km 1105.354km
周期 107.346分钟 107.346分钟
每日圈数 13.414556 13.414536
详细信息
使用方式:
暂无
2D轨道图
3D轨道图
轨道高度分析图
轨道倾角分析图
轨道综合分析图
查看轨道综合分析图